Date,TemperatureHighF,TemperatureAvgF,TemperatureLowF,DewpointHighF,DewpointAvgF,DewpointLowF,HumidityHigh,HumidityAvg,HumidityLow,PressureMaxIn,PressureMinIn,WindSpeedMaxMPH,WindSpeedAvgMPH,GustSpeedMaxMPH,PrecipitationSumIn
2018-1-1,47.3,44.8,42.3,41.2,37.1,34.7,86,76,67,29.86,29.41,17,6,21,0.15
2018-1-2,52.3,45.9,39.6,48.7,39.0,34.9,89,82,75,30.01,29.74,13,4,15,0.04
2018-1-3,57.6,51.7,45.7,50.4,40.4,34.3,86,70,54,29.83,29.49,23,8,27,0.20
2018-1-4,54.5,50.2,46.0,50.9,47.3,42.1,89,87,84,29.74,29.54,17,6,19,0.51
2018-1-5,50.0,47.7,45.3,46.0,43.6,41.5,88,84,76,29.63,29.48,14,3,14,0.26
2018-1-6,45.9,43.9,41.9,43.0,40.6,38.8,90,89,86,29.75,29.55,4,0,4,0.11
2018-1-7,44.2,43.2,42.1,41.7,40.3,38.5,91,89,86,29.95,29.74,3,1,7,0.08
2018-1-8,51.4,45.8,40.1,43.0,38.7,36.5,89,84,69,29.93,29.76,3,0,4,0.00
2018-1-9,40.1,39.3,38.5,37.0,36.2,35.8,90,89,88,29.78,29.75,2,0,2,0.00
2018-1-10,46.2,45.5,44.8,43.2,42.5,37.6,89,89,88,29.75,29.70,7,2,7,0.26
2018-1-11,43.0,40.8,38.5,40.5,38.7,36.1,92,91,91,30.07,29.73,1,0,2,0.19
2018-1-12,44.6,43.3,42.1,41.2,39.9,38.8,92,89,85,30.21,30.18,2,1,3,0.00
2018-1-13,35.8,34.2,32.7,32.4,31.3,28.4,88,87,84,30.15,29.91,3,1,5,0.00
2018-1-14,50.2,41.3,32.4,38.5,30.3,28.0,88,83,64,30.02,29.91,0,0,3,0.00
2018-1-15,47.5,41.7,35.8,43.9,40.9,31.6,91,87,83,30.02,29.57,11,5,20,0.20
2018-1-16,50.4,43.7,37.0,44.1,41.0,30.6,87,80,65,29.62,29.55,15,7,17,0.34
2018-1-17,44.1,40.9,37.8,34.7,31.6,28.9,82,75,55,29.96,29.57,11,7,13,0.00
2018-1-18,50.4,46.0,41.5,46.6,42.1,33.6,88,85,72,29.93,29.68,17,6,18,0.30
2018-1-19,44.8,40.8,36.7,38.3,34.3,29.3,87,81,72,29.92,29.78,9,3,13,0.04
2018-1-20,51.6,43.6,35.6,48.2,38.8,28.8,90,85,74,29.91,29.48,15,5,15,0.53
2018-1-21,50.9,45.6,40.3,48.0,41.1,36.7,90,88,85,30.00,29.68,11,3,12,0.44
2018-1-22,53.1,49.2,45.3,49.1,46.2,39.2,89,86,79,30.18,29.78,13,4,17,0.41
2018-1-23,50.0,46.8,43.5,46.4,41.8,38.7,88,84,79,30.25,30.18,8,2,11,0.01
2018-1-24,54.1,51.2,48.4,47.5,44.5,41.5,87,78,66,30.21,29.95,11,4,14,0.01
2018-1-25,52.3,47.3,42.3,45.3,42.4,39.6,90,86,71,29.96,29.85,14,2,15,0.78
2018-1-26,42.8,38.9,35.1,39.9,38.1,30.9,91,88,84,30.23,29.89,4,1,8,0.01
2018-1-27,38.7,35.8,32.9,36.5,32.9,29.5,92,88,85,30.51,30.23,5,1,9,0.00
2018-1-28,45.5,40.8,36.1,43.0,38.3,32.4,91,89,85,30.59,30.50,10,2,10,0.06
2018-1-29,47.1,46.2,45.3,44.6,43.4,42.3,91,90,88,30.56,30.42,7,2,8,0.05
2018-1-30,48.6,46.9,45.3,45.5,44.0,42.3,91,90,89,30.43,30.21,5,1,7,0.06
2018-1-31,46.4,43.9,41.4,43.3,40.0,36.7,89,84,78,30.21,29.65,17,5,17,0.38
2018-2-1,42.8,36.6,30.4,37.4,31.6,26.4,87,81,64,29.73,29.58,10,2,11,0.01
2018-2-2,42.8,36.5,30.2,36.0,30.6,26.2,88,83,70,29.80,29.71,8,2,10,0.04
2018-2-3,39.7,36.1,32.4,35.1,31.5,28.6,89,85,76,29.79,29.63,11,1,11,0.08
2018-2-4,36.9,31.9,26.8,33.1,29.6,21.0,86,84,77,30.07,29.68,5,1,8,0.19
2018-2-5,33.8,29.5,25.2,29.1,25.0,20.1,85,83,79,30.07,29.86,5,1,5,0.01
2018-2-6,33.6,32.3,31.1,30.2,28.6,27.7,87,86,85,29.86,29.69,3,0,4,0.09
2018-2-7,33.1,30.8,28.6,28.8,26.5,24.6,88,86,83,30.02,29.76,1,0,2,0.06
2018-2-8,34.2,28.8,23.4,27.5,22.3,18.1,85,79,72,30.11,30.02,0,0,0,0.09
2018-2-9,32.4,28.1,23.7,28.0,24.2,19.0,87,83,80,30.02,29.83,5,0,7,0.01
2018-2-10,39.7,33.3,27.0,32.2,26.8,22.3,87,80,69,30.10,29.89,8,1,8,0.20
2018-2-11,45.3,39.3,33.3,40.5,32.8,28.2,91,81,62,29.87,29.67,11,4,12,0.19
2018-2-12,42.8,35.0,27.3,30.9,25.0,20.1,86,76,51,30.06,29.86,9,2,9,0.00
2018-2-13,39.2,33.0,26.8,27.9,22.9,19.4,83,70,49,30.01,29.67,12,2,15,0.00
2018-2-14,39.9,36.1,32.2,34.2,30.3,27.9,86,81,72,29.89,29.73,7,2,10,0.08
2018-2-15,52.9,45.2,37.6,50.0,42.9,33.1,91,89,83,30.09,29.74,9,2,11,0.46
2018-2-16,50.2,41.3,32.5,41.9,35.6,28.8,91,82,58,30.27,30.05,4,0,4,0.05
2018-2-17,44.1,38.9,33.8,39.9,36.2,29.1,90,86,77,30.22,29.92,4,1,6,0.45
2018-2-18,48.6,38.6,28.6,39.4,29.5,25.2,91,80,58,30.23,30.09,4,1,6,0.00
2018-2-19,42.3,34.8,27.3,34.5,29.2,22.3,88,81,68,30.10,29.90,4,1,4,0.12
2018-2-20,46.2,39.5,32.7,37.2,32.5,26.6,90,79,58,30.01,29.85,4,1,7,0.05
2018-2-21,42.6,35.3,28.0,29.1,25.6,22.3,85,74,57,30.07,29.99,11,1,11,0.00
2018-2-22,41.2,34.0,26.8,26.2,20.9,17.4,77,66,47,29.99,29.88,6,1,8,0.00
2018-2-23,39.6,32.4,25.3,24.3,18.3,14.7,65,59,50,29.89,29.83,6,2,6,0.00
2018-2-24,42.1,33.7,25.3,26.2,19.1,14.5,66,59,51,29.93,29.82,5,1,110,0.00
2018-2-25,39.0,31.9,24.8,16.5,9.9,0.7,60,44,28,30.09,29.93,6,2,9,0.00
2018-2-26,33.4,26.6,19.8,6.1,2.9,-2.7,51,38,27,30.14,30.05,7,2,11,0.00
2018-2-27,30.2,22.3,14.4,12.6,5.2,0.5,65,50,40,30.05,29.88,5,1,7,0.00
2018-2-28,32.9,22.1,11.3,18.9,5.0,0.3,73,50,28,29.88,29.45,10,2,11,0.00
2018-3-1,40.3,32.8,25.2,31.8,24.9,18.0,81,74,68,29.46,29.09,9,3,11,0.11
2018-3-2,48.7,38.8,28.8,39.4,29.8,22.8,89,73,51,29.31,29.02,10,2,12,0.17
2018-3-3,52.2,40.7,29.1,40.8,32.4,23.7,83,75,63,29.36,29.13,6,2,8,0.01
2018-3-4,45.9,39.7,33.4,41.2,35.4,28.2,87,82,76,29.37,29.19,9,2,12,0.17
2018-3-5,57.4,45.1,32.7,40.8,34.3,28.4,89,71,37,29.36,29.17,8,1,8,0.00
2018-3-6,53.8,45.8,37.9,39.4,36.7,33.8,87,74,51,29.25,29.16,8,2,8,0.05
2018-3-7,50.7,42.9,35.1,38.1,35.3,29.7,87,77,53,29.61,29.18,12,4,14,0.14
2018-3-8,56.7,46.0,35.2,36.9,32.7,29.7,87,66,37,29.67,29.55,15,3,15,0.00
2018-3-9,58.1,49.3,40.5,42.1,39.4,35.8,84,68,54,29.67,29.55,8,1,8,0.01
2018-3-10,65.1,57.5,50.0,51.6,46.1,40.5,86,71,56,29.55,29.40,8,2,14,0.22
2018-3-11,65.3,56.9,48.4,51.4,45.1,39.7,88,73,40,29.41,29.24,12,2,12,0.12
2018-3-12,54.7,50.1,45.5,42.3,40.0,37.6,81,71,54,29.56,29.23,16,5,16,0.15
2018-3-13,50.5,45.1,39.7,42.3,39.4,35.2,85,78,68,29.88,29.55,14,3,14,0.11
2018-3-14,58.6,45.5,32.4,43.0,33.5,28.0,89,65,37,29.88,29.32,11,2,15,0.01
2018-3-15,56.5,50.8,45.1,45.3,40.2,33.1,86,74,55,29.40,29.20,10,2,10,0.32
2018-3-16,51.4,46.3,41.2,43.7,40.4,36.5,85,79,63,29.58,29.39,5,1,8,0.07
2018-3-17,45.0,39.8,34.7,40.6,36.1,29.8,89,85,81,29.52,29.34,3,1,4,0.11
2018-3-18,34.7,32.0,29.3,29.8,25.2,23.4,83,79,75,29.65,29.40,3,1,6,0.06
2018-3-19,37.0,32.0,27.1,26.4,24.1,20.3,82,72,63,29.83,29.62,4,1,5,0.00
2018-3-20,41.5,34.3,27.1,29.3,21.8,15.8,73,60,42,30.25,29.82,10,2,10,0.00
2018-3-21,48.0,38.0,28.0,28.4,23.0,19.6,77,61,38,30.37,30.25,8,2,8,0.00
2018-3-22,45.3,35.2,25.0,33.4,27.1,18.1,83,70,58,30.30,29.96,9,2,9,0.00
2018-3-23,46.2,42.0,37.8,33.6,31.0,27.1,75,67,56,29.96,29.43,10,2,11,0.00
2018-3-24,59.5,48.2,36.9,38.3,33.8,28.2,80,63,40,29.53,29.34,4,1,8,0.00
2018-3-25,61.2,48.4,35.6,42.1,36.5,29.5,87,66,40,29.83,29.51,4,1,6,0.00
2018-3-26,56.3,47.8,39.2,40.6,36.3,30.4,84,66,39,30.04,29.82,5,1,7,0.06
2018-3-27,51.8,45.6,39.4,47.5,38.3,31.8,87,79,71,30.02,29.73,98,3,98,0.22
2018-3-28,52.9,47.4,41.9,48.4,40.7,33.6,88,78,67,29.82,29.57,14,4,15,0.19
2018-3-29,54.5,45.0,35.4,37.6,33.2,27.9,87,67,39,29.72,29.60,11,2,11,0.00
2018-3-30,50.5,43.2,36.0,41.7,34.7,28.8,80,73,63,29.61,29.33,14,2,17,0.08
2018-3-31,51.3,42.1,32.9,38.7,33.5,28.2,87,73,57,29.65,29.35,11,2,11,0.01
2018-4-1,52.0,46.7,41.4,36.3,34.2,29.5,78,66,42,29.91,29.65,9,3,9,0.00
2018-4-2,63.9,59.4,54.9,43.3,40.0,35.2,63,49,37,29.56,29.51,7,2,10,0.00
2018-4-3,62.1,54.0,45.9,45.9,40.3,33.8,85,66,52,29.57,29.47,13,3,14,0.20
2018-4-4,60.3,53.4,46.6,46.6,42.6,36.9,85,72,43,29.66,29.47,12,4,15,0.08
2018-4-5,52.0,45.4,38.8,42.8,36.7,30.6,85,66,50,30.09,29.65,11,3,11,0.04
2018-4-6,69.3,53.1,36.9,43.2,36.6,28.9,79,59,35,30.05,29.73,6,2,9,0.00
2018-4-7,72.3,60.9,49.5,45.1,39.3,34.0,65,49,31,29.78,29.69,8,2,11,0.00
2018-4-8,70.2,58.4,46.6,51.8,45.1,40.8,92,67,37,29.71,29.62,9,1,10,0.05
2018-4-9,52.9,51.1,49.3,50.5,47.5,44.6,92,88,81,29.70,29.61,4,1,5,0.32
2018-4-10,59.2,52.8,46.4,46.9,42.4,40.6,95,67,52,29.57,29.43,11,2,15,0.01
2018-4-11,66.7,54.4,42.1,47.1,41.4,37.6,86,69,44,29.59,29.49,6,1,9,0.00
2018-4-12,54.1,49.8,45.5,49.1,44.5,39.6,90,83,71,29.54,29.40,7,1,8,0.33
2018-4-13,64.9,52.2,39.6,47.3,43.5,37.8,95,76,49,29.89,29.53,8,1,8,0.00
2018-4-14,60.4,53.2,45.9,48.0,45.3,41.9,89,75,60,30.01,29.89,5,1,6,0.00
2018-4-15,65.3,54.2,43.0,50.0,44.2,40.3,93,70,44,29.96,29.81,7,1,7,0.00
2018-4-16,61.3,52.3,43.3,46.2,42.1,38.8,90,70,47,30.12,29.86,5,1,6,0.00
2018-4-17,70.3,54.1,37.9,48.9,42.1,35.2,92,67,38,30.31,30.11,5,1,172,0.00
2018-4-18,80.2,62.2,44.2,53.4,46.2,41.2,93,63,29,30.32,30.21,6,1,9,0.00
2018-4-19,81.0,65.2,49.5,53.4,48.8,44.1,85,60,32,30.26,30.18,4,1,6,0.00
2018-4-20,84.2,67.4,50.7,59.9,51.8,46.2,95,65,30,30.21,30.11,4,1,4,0.00
2018-4-21,83.8,68.4,52.9,57.9,52.8,45.3,93,65,29,30.13,29.95,4,1,6,0.00
2018-4-22,77.9,67.2,56.5,57.4,53.3,50.7,85,64,43,29.95,29.87,8,2,10,0.00
2018-4-23,66.9,59.0,51.1,55.6,52.0,46.8,89,74,58,30.10,29.94,7,1,7,0.01
2018-4-24,69.3,57.4,45.5,51.3,48.1,43.0,95,69,45,30.09,29.93,6,1,7,0.00
2018-4-25,61.9,53.9,45.9,54.3,48.3,40.6,89,81,68,30.06,29.90,6,2,8,0.05
2018-4-26,59.9,46.0,32.0,43.9,40.4,-18.4,91,76,10,30.14,30.05,7,2,9,0.00
2018-4-28,54.3,50.7,47.1,45.5,44.3,42.3,87,75,65,29.87,29.78,4,1,4,0.01
2018-4-29,55.9,51.0,46.0,52.0,48.1,42.4,96,92,84,29.77,29.40,7,1,10,0.72
2018-4-30,50.0,45.3,40.6,48.4,43.2,38.3,95,93,90,29.83,29.45,11,4,13,0.33
2018-5-1,54.3,45.2,36.1,42.1,38.4,33.8,98,79,55,29.94,29.83,7,1,49,0.00
2018-5-2,63.5,49.5,35.4,47.5,38.0,33.3,96,69,36,29.90,29.82,8,1,8,0.00
2018-5-3,61.2,53.0,44.8,47.3,43.8,39.2,91,74,51,30.06,29.87,4,1,6,0.00
2018-5-4,69.1,54.3,39.6,48.6,42.4,36.3,91,66,45,30.10,30.02,9,2,11,0.00
2018-5-5,75.4,60.8,46.2,57.6,49.2,40.8,83,67,50,30.09,30.02,5,1,8,0.00
2018-5-6,79.2,65.2,51.3,60.1,54.8,48.7,93,72,49,30.07,23.92,6,1,7,0.00
2018-5-7,79.2,63.8,48.4,57.9,52.0,45.1,93,69,43,30.01,29.87,5,1,7,0.00
2018-5-8,80.6,64.5,48.4,57.2,51.8,45.9,95,67,36,29.87,29.70,4,1,4,0.00
2018-5-9,71.2,60.6,50.0,57.7,52.7,45.9,91,74,60,29.78,29.72,5,2,98,0.00
2018-5-10,63.3,54.5,45.7,53.2,46.2,40.3,84,69,45,30.12,29.76,8,1,8,0.00
2018-5-11,71.2,55.4,39.7,49.6,43.3,37.4,93,67,35,30.12,29.92,5,1,10,0.00
2018-5-12,73.0,60.3,47.7,58.6,49.8,44.8,94,76,47,29.95,29.77,11,1,11,0.09
2018-5-13,55.9,51.2,46.6,47.5,45.3,42.3,97,85,63,29.96,29.91,7,2,7,0.26
2018-5-14,52.9,49.0,45.1,51.8,48.3,43.9,97,95,92,29.93,29.82,4,2,5,0.38
2018-5-15,59.4,55.2,50.9,54.3,51.7,48.9,97,93,82,30.00,29.88,4,1,5,0.08
2018-5-16,70.3,60.1,49.8,58.5,52.9,48.4,98,83,58,30.07,29.94,4,1,5,0.01
2018-5-17,66.4,58.2,50.0,54.0,49.6,45.0,92,79,59,30.14,30.06,5,2,5,0.00
2018-5-18,67.8,55.0,42.1,51.1,44.8,39.6,94,71,45,30.14,30.09,4,1,6,0.00
2018-5-19,70.2,56.1,42.1,51.4,45.4,39.6,93,71,45,30.12,30.05,5,1,5,0.00
2018-5-20,75.0,58.8,42.6,55.6,48.7,40.3,95,73,44,30.11,29.94,6,1,8,0.01
2018-5-21,74.5,61.2,48.0,57.4,52.1,46.2,95,75,47,29.95,29.81,4,1,6,0.01
2018-5-22,74.3,64.1,53.8,60.4,54.6,50.5,92,77,51,29.96,29.83,4,1,4,0.06
2018-5-23,73.0,62.8,52.7,58.8,54.3,49.5,93,80,56,30.05,29.94,4,1,4,0.28
2018-5-24,75.9,62.8,49.6,64.4,55.1,48.0,96,78,50,30.04,29.94,4,1,25,0.01
2018-5-25,82.0,68.2,54.3,62.6,56.8,51.8,95,72,41,30.00,29.90,6,1,9,0.06
2018-5-26,80.1,69.1,58.1,64.9,59.7,56.1,95,75,49,29.97,29.90,5,1,7,0.01
2018-5-27,81.0,70.4,59.9,63.5,58.6,55.9,88,69,45,30.00,29.92,5,1,8,0.00
2018-5-28,76.3,68.4,60.4,64.4,59.8,55.6,92,79,62,30.00,29.91,4,0,4,0.12
2018-5-29,77.0,67.8,58.6,64.6,59.6,57.4,96,85,59,29.94,29.83,5,1,6,0.11
2018-5-30,71.1,66.7,62.2,64.2,60.7,57.9,89,83,77,29.91,29.87,2,0,9,0.01
2018-5-31,74.1,65.2,56.3,61.9,58.6,54.3,95,82,62,30.02,29.87,4,1,6,0.54
2018-6-1,68.2,63.1,58.1,59.5,57.7,54.5,95,86,69,30.12,30.01,5,1,7,0.00
2018-6-2,75.4,64.5,53.6,62.2,56.9,52.0,96,78,55,30.11,30.01,4,1,6,0.00
2018-6-3,81.7,69.6,57.4,63.5,59.1,54.9,94,75,48,30.05,29.88,5,1,7,0.06
2018-6-4,80.1,69.7,59.2,66.2,61.4,56.8,96,80,53,29.94,29.76,4,1,8,0.22
2018-6-5,74.5,68.3,62.1,66.2,62.4,58.6,94,87,74,29.84,29.77,4,1,6,0.21
2018-6-6,77.4,69.8,62.1,64.4,61.9,60.1,95,83,60,29.91,29.75,9,1,9,0.04
2018-6-7,76.3,67.3,58.3,62.8,59.4,56.5,95,79,60,29.98,29.91,7,1,7,0.00
2018-6-8,81.9,68.8,55.8,64.4,59.3,53.8,95,74,47,29.96,29.84,4,1,5,0.00
2018-6-9,83.8,71.7,59.5,66.0,61.9,56.8,94,77,49,29.91,29.81,4,1,6,0.07
2018-6-10,79.2,69.0,58.8,66.7,62.4,57.0,96,83,57,29.88,29.78,4,1,4,0.01
2018-6-11,73.2,67.7,62.2,67.1,63.4,60.4,95,86,68,29.82,29.71,6,1,8,0.38
2018-6-12,70.3,63.9,57.4,61.9,58.2,53.8,93,86,66,29.93,29.76,7,2,8,0.14
2018-6-13,65.8,59.0,52.2,54.9,52.1,48.0,94,80,59,30.06,29.91,6,1,7,0.00
2018-6-14,71.8,59.4,46.9,57.2,51.7,45.3,96,77,51,30.05,29.97,7,1,7,0.00
2018-6-15,75.9,67.8,59.7,59.7,57.1,55.0,91,74,50,30.03,29.98,4,1,4,0.00
2018-6-16,73.6,66.1,58.5,59.4,55.8,53.1,91,71,52,30.04,29.96,7,1,8,0.00
2018-6-17,69.3,62.7,56.1,55.2,53.2,50.5,88,73,56,30.17,30.03,4,1,7,0.00
2018-6-18,72.7,57.4,42.1,59.9,56.3,36.0,86,76,62,30.23,30.13,9,1,10,0.00
2018-6-19,76.3,65.1,53.8,62.2,57.4,51.3,95,79,60,30.28,30.19,5,1,5,0.00
2018-6-20,85.1,70.1,55.0,63.7,57.6,52.5,95,69,36,30.20,30.05,4,1,4,0.00
2018-6-21,71.4,62.6,53.8,61.2,53.7,41.9,95,71,49,30.27,30.04,6,1,6,0.00
2018-6-22,70.0,56.0,41.9,50.2,44.2,38.5,93,64,43,30.33,30.27,7,1,8,0.00
2018-6-23,72.0,57.8,43.7,50.5,45.9,39.9,92,66,38,30.33,30.21,7,1,7,0.00
2018-6-24,74.5,62.9,51.3,54.1,49.5,44.8,92,66,39,30.22,30.12,5,1,7,0.00
2018-6-25,77.5,63.5,49.5,57.7,52.1,46.4,94,69,47,30.20,30.13,6,1,8,0.00
2018-6-26,82.4,67.8,53.1,60.1,54.7,50.5,94,67,43,30.20,30.10,5,1,99,0.00
2018-6-27,84.9,69.1,53.2,59.7,53.7,48.7,90,61,37,30.13,30.01,9,1,12,0.00
2018-6-28,83.5,69.0,54.5,55.8,53.4,50.4,89,61,35,30.06,29.94,7,1,11,0.00
2018-6-29,86.0,71.2,56.3,61.5,57.0,52.5,89,64,42,30.00,29.85,11,1,11,0.00
2018-6-30,89.1,75.3,61.5,64.8,61.2,57.2,89,65,41,29.88,29.74,7,1,7,0.00
2018-7-1,94.3,79.7,65.1,66.6,62.5,55.6,85,53,37,29.79,29.71,4,1,6,0.00
2018-7-2,78.4,71.2,63.9,66.0,60.2,54.0,90,71,50,29.93,29.76,12,1,13,0.01
2018-7-3,82.8,71.6,60.4,69.3,63.2,58.6,97,79,47,29.99,29.91,4,1,7,0.13
2018-7-4,84.4,72.5,60.6,66.0,59.9,55.2,95,67,41,29.98,29.85,10,1,10,0.00
2018-7-5,72.1,67.6,63.1,64.8,61.4,58.8,93,85,72,30.03,29.88,7,1,8,0.05
2018-7-6,82.9,71.2,59.4,63.0,58.9,55.4,94,69,41,30.17,30.02,5,1,5,0.01
2018-7-7,86.7,71.8,56.8,63.0,57.2,54.3,95,64,37,30.18,30.11,4,1,8,0.00
2018-7-8,83.7,70.8,57.9,60.4,56.9,54.0,90,62,42,30.19,30.12,4,1,7,0.00
2018-7-9,81.7,68.8,55.9,56.8,54.3,52.0,90,61,39,30.18,30.09,6,1,7,0.00
2018-7-10,75.2,65.3,55.4,59.2,52.8,45.9,92,67,42,30.12,30.04,5,1,7,0.00
2018-7-11,75.6,62.3,49.1,56.8,51.2,45.9,96,70,42,30.08,30.00,5,1,12,0.00
2018-7-12,79.9,65.9,52.0,57.7,53.4,49.8,96,67,39,30.06,30.00,5,1,7,0.00
2018-7-13,85.3,70.4,55.4,62.6,55.7,52.9,96,65,34,30.07,30.00,8,1,8,0.00
2018-7-14,87.8,72.2,56.5,61.3,56.9,53.2,94,64,34,30.07,29.95,4,0,6,0.00
2018-7-15,89.2,73.6,57.9,60.4,56.8,52.5,91,63,32,29.98,29.86,4,1,6,0.00
2018-7-16,88.2,73.5,58.8,62.1,55.8,50.4,87,61,33,29.94,29.82,4,1,8,0.00
2018-7-17,81.0,69.3,57.7,58.5,55.7,53.8,90,64,43,30.04,29.94,7,1,7,0.00
2018-7-18,82.9,68.9,54.9,60.3,55.1,51.4,96,65,36,30.04,29.95,4,1,5,0.00
2018-7-19,75.6,65.8,55.9,57.2,53.4,51.3,86,74,49,30.01,29.92,2,0,4,0.00
2018-7-20,78.4,70.5,62.6,64.2,60.5,53.1,95,75,53,29.98,29.85,6,2,8,0.14
2018-7-21,79.9,69.2,58.6,59.0,55.3,50.5,94,67,40,29.96,29.86,7,2,8,0.00
2018-7-22,82.0,68.9,55.8,60.8,56.0,52.9,94,68,41,30.02,29.94,4,1,7,0.00
2018-7-23,88.7,72.1,55.4,64.6,56.5,52.0,97,64,29,30.03,29.94,4,1,7,0.00
2018-7-24,90.5,75.0,59.5,63.5,58.0,55.0,89,60,31,29.97,29.84,6,1,6,0.00
2018-7-25,93.6,77.1,60.6,65.1,59.9,56.1,93,61,32,29.95,29.88,5,1,6,0.00
2018-7-26,97.3,80.1,62.8,66.6,61.1,54.7,95,60,26,29.93,29.78,5,1,6,0.00
2018-7-27,99.5,81.8,64.2,65.1,61.1,55.0,90,60,24,29.86,29.70,13,1,13,0.00
2018-7-28,79.2,70.8,62.4,62.6,59.0,48.4,89,70,45,29.93,29.76,8,2,11,0.00
2018-7-29,84.9,71.7,58.5,60.6,55.7,50.7,84,60,42,29.94,29.86,8,2,9,0.00
2018-7-30,84.4,72.4,60.4,61.7,59.3,56.5,89,65,45,30.00,29.94,8,1,9,0.00
2018-7-31,86.0,73.9,61.9,62.4,59.7,57.4,92,66,40,30.08,29.97,5,1,6,0.00
2018-8-1,90.1,77.8,65.5,61.7,59.9,58.3,84,61,35,30.11,30.04,5,1,5,0.00
2018-8-2,94.1,77.6,61.0,64.2,58.7,54.1,93,59,31,30.14,30.06,8,1,8,0.00
2018-8-3,97.7,79.3,61.0,63.9,59.1,54.5,84,54,32,30.13,29.97,6,1,6,0.00
2018-8-4,95.2,79.8,64.4,62.6,57.6,50.2,83,51,26,30.09,30.02,4,1,8,0.00
2018-8-5,92.1,78.1,64.2,64.0,60.2,54.5,86,59,33,30.10,29.98,8,1,8,0.00
2018-8-6,96.8,78.2,59.7,61.7,55.7,49.6,90,54,23,30.02,29.82,6,1,6,0.00
2018-8-7,98.4,81.9,65.5,65.7,58.5,52.9,67,48,24,29.87,29.64,9,2,10,0.00
2018-8-8,81.7,73.8,66.0,60.1,57.1,53.6,76,59,39,29.96,29.76,10,2,11,0.00
2018-8-9,68.9,62.8,56.8,65.8,59.3,54.1,95,84,70,30.13,29.71,10,2,13,0.13
2018-8-10,73.0,62.6,52.2,58.6,50.7,44.4,99,70,37,30.23,30.12,10,2,10,0.01
2018-8-11,77.9,64.4,50.9,55.8,50.9,48.0,96,65,36,30.25,30.12,5,1,5,0.00
2018-8-12,89.2,71.1,53.1,57.4,51.3,47.7,87,57,26,30.12,29.76,9,1,11,0.00
2018-8-13,74.5,68.4,62.4,63.1,58.9,55.6,92,74,56,29.89,29.74,11,2,11,0.09
2018-8-14,78.4,66.6,54.7,61.2,56.5,52.9,98,74,46,30.12,29.89,9,1,9,0.01
2018-8-15,82.0,67.2,52.5,59.9,54.6,50.9,98,68,41,30.14,30.05,4,1,6,0.00
2018-8-16,89.6,73.2,56.7,61.7,56.7,52.5,97,64,30,30.06,29.83,5,1,6,0.00
2018-8-17,75.7,66.9,58.1,59.4,54.4,48.2,92,66,41,30.16,29.91,5,1,6,0.02
2018-8-18,80.1,64.4,48.7,54.0,49.3,46.4,97,62,33,30.22,30.14,5,1,5,0.00
2018-8-19,83.8,68.4,52.9,59.5,54.3,50.5,97,65,37,30.19,30.09,6,1,6,0.00
2018-8-20,79.9,68.3,56.8,63.3,58.6,54.1,94,72,51,30.14,30.08,5,1,5,0.00
2018-8-21,85.3,70.9,56.5,65.5,57.8,55.4,98,70,41,30.13,30.01,7,1,7,0.00
2018-8-22,90.3,73.9,57.6,61.7,57.8,55.0,94,63,34,30.07,29.92,6,1,6,0.00
2018-8-23,86.9,73.8,60.6,62.6,58.5,54.7,88,64,42,29.99,29.85,9,1,9,0.00
2018-8-24,70.7,63.6,56.5,57.4,49.7,39.9,94,64,37,30.02,29.93,7,2,7,0.01
2018-8-25,68.5,58.5,48.6,54.1,45.5,37.4,95,63,34,30.04,29.90,8,2,8,0.08
2018-8-26,75.2,58.3,41.5,47.7,41.3,34.5,98,59,25,30.04,29.88,8,2,13,0.00
2018-8-27,74.7,66.8,58.8,65.1,56.3,39.7,95,73,43,30.06,29.86,5,2,8,0.09
2018-8-28,83.5,67.4,51.3,62.4,55.3,49.1,93,70,42,30.06,29.87,6,1,6,0.00
2018-8-29,74.7,67.1,59.4,65.3,59.5,53.2,96,82,65,30.12,29.81,6,2,9,0.08
2018-8-30,68.5,60.0,51.4,58.6,52.9,49.5,98,76,53,30.18,30.12,2,0,4,0.00
2018-8-31,73.8,63.5,53.2,54.1,50.6,45.1,89,67,39,30.19,30.08,7,1,7,0.00
2018-9-1,75.9,60.0,44.1,53.2,44.9,40.6,99,65,30,30.23,30.16,5,1,8,0.00
2018-9-2,79.3,61.7,44.1,50.4,45.0,41.0,95,61,26,30.22,30.04,6,1,7,0.00
2018-9-3,77.9,64.2,50.5,57.4,51.5,48.9,97,70,41,30.05,29.97,8,1,8,0.00
2018-9-4,80.1,65.9,51.8,59.2,54.3,49.6,98,71,42,30.00,29.95,4,1,4,0.00
2018-9-5,81.5,70.7,59.9,62.2,58.6,54.9,96,74,43,30.00,29.93,8,1,8,0.00
2018-9-6,77.0,69.1,61.2,60.8,58.3,52.9,95,75,52,29.96,29.88,4,1,7,0.00
2018-9-7,69.6,59.0,48.4,55.0,51.0,47.3,98,77,55,30.08,29.95,6,1,97,0.00
2018-9-8,77.4,61.9,46.4,54.7,48.3,45.1,98,68,34,30.10,30.05,4,1,99,0.00
2018-9-9,87.8,69.0,50.2,54.1,47.9,40.3,89,58,22,30.12,30.05,5,1,8,0.00
2018-9-10,79.7,66.0,52.3,57.6,51.6,45.9,94,64,36,30.24,30.10,8,1,8,0.00
2018-9-11,86.5,67.9,49.3,55.6,52.2,47.8,97,65,33,30.25,30.13,5,1,7,0.00
2018-9-12,88.5,70.8,53.1,58.1,54.3,50.9,97,64,32,30.16,30.03,4,1,6,0.00
2018-9-13,72.1,66.2,60.3,60.3,56.7,53.8,87,76,62,30.12,30.02,4,1,5,0.00
2018-9-14,74.5,64.2,53.8,55.0,50.4,43.0,90,67,35,30.19,30.09,4,1,4,0.00
2018-9-15,74.7,59.8,44.8,53.2,45.4,42.8,99,67,35,30.27,30.19,6,1,7,0.00
2018-9-16,80.8,63.2,45.5,50.5,44.8,37.6,96,62,22,30.21,30.05,4,1,6,0.00
2018-9-17,87.1,66.9,46.8,51.3,46.9,41.7,94,58,23,30.10,29.89,7,1,8,0.00
2018-9-18,83.3,71.4,59.4,60.1,55.6,48.9,84,61,42,30.03,29.87,7,2,9,0.00
2018-9-19,81.1,69.2,57.4,60.6,56.7,53.2,96,71,43,30.12,30.02,7,1,8,0.00
2018-9-20,80.1,66.8,53.6,59.2,54.1,49.8,97,70,38,30.11,29.88,8,1,8,0.00
2018-9-21,64.6,57.8,51.1,59.2,51.4,45.1,96,73,54,30.18,29.80,10,2,11,0.17
2018-9-22,66.7,56.4,46.2,50.4,45.2,40.5,96,67,42,30.19,30.00,8,2,12,0.00
2018-9-23,70.5,60.2,50.0,66.0,59.7,48.6,96,88,56,30.30,29.90,13,4,15,0.39
2018-9-24,62.6,51.2,39.7,52.0,44.0,39.6,99,82,51,30.55,30.30,5,1,8,0.01
2018-9-25,66.7,53.8,41.0,45.7,40.7,37.6,99,72,40,30.54,30.47,10,1,10,0.00
2018-9-26,70.0,54.0,37.9,43.9,39.5,35.1,92,67,33,30.48,30.39,6,1,6,0.00
2018-9-27,67.3,55.3,43.3,52.2,44.2,41.7,97,89,57,30.41,30.30,1,0,1,0.00
2018-9-28,74.1,61.9,49.8,56.3,49.9,45.0,99,63,36,30.26,30.14,10,2,10,0.00
2018-9-29,68.4,56.1,43.7,46.6,41.1,34.7,91,66,38,30.25,30.08,5,1,7,0.00
2018-9-30,67.1,52.9,38.8,42.6,37.4,34.5,90,62,35,30.07,29.98,4,1,8,0.00
2018-10-1,60.3,52.5,44.8,44.1,40.0,32.9,84,64,44,30.28,30.02,6,1,7,0.00
2018-10-2,56.3,48.7,41.0,48.7,41.5,35.1,84,72,63,30.28,30.21,8,2,10,0.00
2018-10-3,63.3,55.5,47.7,58.6,53.2,46.0,99,89,71,30.33,30.22,3,1,5,0.06
2018-10-4,72.1,56.8,41.5,54.3,45.2,41.4,99,78,42,30.31,30.13,5,1,5,0.01
2018-10-5,79.5,61.8,44.1,51.6,47.6,43.0,97,72,35,30.12,29.88,5,1,8,0.00
2018-10-6,79.2,66.1,52.9,54.5,50.7,48.0,87,65,36,29.88,29.65,8,2,10,0.00
2018-10-7,66.7,59.9,53.2,54.9,52.4,49.6,96,82,57,30.12,29.75,4,1,5,0.02
2018-10-8,68.7,59.2,49.8,53.4,49.6,46.2,94,79,55,30.14,30.08,4,1,4,0.00
2018-10-9,70.7,58.3,45.9,55.9,51.1,45.1,99,85,56,30.10,30.01,8,1,8,0.00
2018-10-10,78.8,64.5,50.2,57.2,52.3,48.0,99,74,40,30.01,29.78,11,2,11,0.04
2018-10-11,79.2,68.9,58.6,57.6,55.3,52.3,93,70,42,29.94,29.75,12,2,13,0.12
2018-10-12,79.3,68.1,56.8,59.9,57.7,55.8,96,77,48,30.09,29.92,7,1,9,0.04
2018-10-13,80.1,67.8,55.6,58.5,55.4,53.2,97,74,43,30.09,29.85,7,1,12,0.00
2018-10-14,80.2,70.6,61.0,53.6,50.8,47.8,75,55,36,29.86,29.65,11,3,14,0.00
2018-10-15,80.1,69.3,58.5,50.4,45.8,38.7,67,47,24,29.93,29.72,13,2,13,0.00
2018-10-16,78.3,66.2,54.0,51.6,48.9,46.4,84,63,34,30.06,29.92,4,0,5,0.00
2018-10-17,76.6,61.6,46.6,58.1,50.1,45.9,99,77,45,30.06,29.97,4,0,5,0.00
2018-10-18,74.3,61.6,48.9,57.6,51.8,48.2,99,82,50,30.09,30.01,5,1,5,0.00
2018-10-19,70.7,58.5,46.4,55.4,50.0,46.2,99,84,53,30.22,30.06,4,1,4,0.00
2018-10-20,68.5,55.9,43.3,53.4,47.5,42.8,99,85,55,30.35,30.20,3,0,4,0.00
2018-10-21,69.8,53.6,37.4,50.9,42.1,37.2,99,80,36,30.32,30.21,5,0,5,0.00
2018-10-22,64.6,51.9,39.2,51.1,44.4,38.7,99,84,56,30.46,30.21,8,1,30,0.00
2018-10-23,58.8,46.5,34.3,47.8,40.0,33.1,99,80,53,30.46,30.34,4,1,84,0.00
2018-10-24,56.7,48.5,40.3,55.0,46.5,38.8,99,93,82,30.35,30.27,2,0,2,0.00
2018-10-25,63.7,52.6,41.5,52.5,48.2,39.2,96,83,58,30.27,30.00,4,1,4,0.00
2018-10-26,52.2,46.7,41.2,48.4,43.8,40.1,99,91,75,30.00,29.78,5,1,8,0.01
2018-10-27,51.3,41.8,32.4,43.9,35.6,28.0,99,83,54,29.81,29.70,3,0,4,0.02
2018-10-28,43.3,37.0,30.7,39.7,34.5,28.8,99,85,69,29.70,29.57,10,2,10,0.02
2018-10-29,41.7,38.9,36.1,38.5,36.5,34.3,97,89,83,29.60,29.12,8,2,9,0.25
2018-10-30,45.1,38.5,32.0,44.4,35.3,30.4,99,93,82,29.70,29.12,11,2,11,0.30
2018-10-31,50.2,41.8,33.3,48.7,40.9,31.5,99,93,79,29.73,29.68,8,1,8,0.05
2018-11-1,54.5,50.5,46.4,47.1,44.2,41.2,93,80,70,29.93,29.65,7,2,10,0.11
2018-11-2,53.8,43.9,34.0,48.4,42.8,30.9,97,90,75,30.33,29.93,3,0,6,0.12
2018-11-3,52.9,40.9,28.9,45.3,34.8,27.1,98,88,69,30.32,30.04,2,0,3,0.01
2018-11-4,55.2,44.4,33.6,49.6,39.7,31.8,98,90,73,30.04,29.67,4,1,5,0.00
2018-11-5,64.6,55.3,46.0,51.6,47.2,43.3,92,77,61,29.67,29.58,4,1,5,0.00
2018-11-6,62.6,53.8,45.0,50.5,45.1,39.7,85,71,49,29.68,29.55,12,2,13,0.00
2018-11-7,52.2,48.6,45.0,48.9,43.7,39.7,90,83,73,29.93,29.59,9,2,15,0.17
2018-11-8,56.3,46.8,37.2,47.5,41.9,34.0,95,84,65,30.07,29.86,5,1,8,0.01
2018-11-9,61.9,50.0,38.1,49.8,42.8,36.5,95,85,57,29.85,29.65,7,1,7,0.00
2018-11-10,54.0,51.7,49.3,49.8,47.3,44.6,90,86,75,29.64,29.55,8,3,13,0.26
2018-11-11,61.0,55.2,49.5,48.4,46.4,44.1,87,76,59,29.81,29.61,8,2,93,0.01
2018-11-12,52.7,49.3,45.9,50.5,48.0,43.7,94,92,87,30.10,29.75,2,0,4,0.27
2018-11-13,58.3,48.8,39.2,49.6,45.1,37.4,95,88,64,30.36,30.09,7,1,7,0.00
2018-11-14,62.4,50.2,38.1,52.3,43.7,36.7,96,89,66,30.32,30.14,4,1,4,0.01
2018-11-15,57.4,51.3,45.3,52.2,46.1,43.3,95,92,78,30.15,30.11,3,1,4,0.00
2018-11-16,47.5,44.2,40.8,46.4,43.8,39.7,96,95,93,30.22,30.14,3,1,4,0.01
2018-11-17,47.8,39.0,30.2,44.2,33.8,28.2,96,89,77,30.22,30.08,4,1,4,0.00
2018-11-18,47.5,38.8,30.0,35.8,29.5,25.7,89,81,60,30.11,29.95,4,1,7,0.00
2018-11-19,44.2,35.8,27.5,32.0,26.2,17.2,86,73,61,29.96,29.58,8,1,9,0.01
2018-11-20,37.4,32.6,27.7,33.1,29.3,22.8,86,82,78,29.66,29.49,2,0,4,0.01
2018-11-21,38.5,30.6,22.8,36.5,27.0,18.9,93,86,82,29.94,29.66,2,0,3,0.00
2018-11-22,41.9,38.3,34.7,40.3,35.9,32.0,96,93,89,29.96,29.91,4,1,4,0.07
2018-11-23,45.9,41.0,36.1,44.4,39.0,33.8,96,94,91,29.94,29.70,4,1,98,0.17
2018-11-24,47.8,44.6,41.4,44.4,42.4,39.0,96,91,84,29.80,29.70,7,2,9,0.05
2018-11-25,45.0,42.8,40.5,43.3,41.6,39.2,95,94,93,29.73,29.53,3,0,4,0.14
2018-11-26,43.5,41.8,40.1,41.9,40.6,38.8,96,95,94,29.92,29.56,3,1,4,0.04
2018-11-27,43.3,41.7,40.1,41.0,39.4,38.7,96,93,87,30.06,29.92,9,1,9,0.08
2018-11-28,50.0,45.8,41.7,48.2,44.7,39.9,95,93,90,30.07,29.95,9,2,9,0.46
2018-11-29,57.0,51.9,46.8,45.5,43.2,40.5,91,76,57,29.99,29.80,8,2,11,0.01
2018-11-30,55.2,48.2,41.2,46.2,42.7,38.8,92,81,67,29.96,29.83,8,1,8,0.01
2018-12-1,48.9,45.0,41.0,46.8,42.8,39.2,94,91,80,29.96,29.70,11,3,15,0.21
2018-12-2,56.8,52.8,48.9,54.9,51.8,46.8,93,92,91,29.74,29.62,11,4,15,0.51
2018-12-3,57.2,52.5,47.8,52.9,50.4,43.3,92,89,78,29.90,29.66,13,4,18,0.22
2018-12-4,52.3,47.2,42.1,48.7,45.7,39.6,94,89,82,30.19,29.90,8,1,10,0.24
2018-12-5,50.9,45.8,40.6,48.4,43.4,39.2,95,91,84,30.19,29.94,9,1,9,0.08
2018-12-6,54.5,52.5,50.5,51.4,49.5,47.1,93,90,85,30.14,29.96,7,2,10,0.15
2018-12-7,53.4,47.6,41.7,47.7,43.7,37.2,89,83,75,30.13,29.68,16,5,22,0.17
2018-12-8,51.8,46.7,41.5,48.0,41.4,36.7,90,83,74,29.97,29.73,21,6,21,0.06
2018-12-9,51.8,48.4,45.0,44.4,41.3,37.4,88,78,70,30.16,29.73,17,6,18,0.15
2018-12-10,48.6,44.9,41.2,42.1,39.6,37.8,91,83,72,30.29,30.16,8,3,8,0.01
2018-12-11,42.1,36.2,30.4,39.6,34.8,27.0,93,87,83,30.27,30.16,6,0,6,0.00
2018-12-12,42.1,34.7,27.3,38.1,27.5,23.2,93,86,74,30.17,29.97,4,0,4,0.00
2018-12-13,42.1,34.2,26.2,30.7,25.2,20.7,88,79,60,29.98,29.78,7,1,8,0.00
2018-12-14,32.5,27.0,21.4,26.1,21.4,16.7,86,77,66,30.19,29.90,2,0,4,0.01
2018-12-15,36.1,31.1,26.2,32.7,24.4,20.3,88,77,64,30.18,29.75,7,1,9,0.32
2018-12-16,46.0,41.2,36.3,44.1,40.6,33.1,94,92,88,29.86,29.75,7,1,8,0.04
2018-12-17,45.1,41.3,37.6,41.2,39.0,35.2,94,91,84,30.23,29.85,6,2,8,0.02
2018-12-18,45.9,39.7,33.4,40.6,35.8,31.1,95,86,70,30.20,29.79,8,1,9,0.12
2018-12-19,48.7,46.2,43.7,44.4,41.7,39.6,91,86,76,29.88,29.81,14,3,14,0.08
2018-12-20,48.4,45.5,42.6,42.1,40.1,38.7,89,84,74,30.00,29.87,11,3,11,0.05
2018-12-21,52.2,48.8,45.5,49.1,45.7,41.2,91,89,85,29.97,29.80,19,7,21,0.27
2018-12-26,29.7,28.6,27.5,27.1,25.8,23.5,90,88,85,30.40,30.30,4,0,4,0.00
2018-12-27,37.6,31.1,24.6,36.0,27.1,21.0,94,87,85,30.30,30.22,4,0,4,0.01
2018-12-28,37.9,33.8,29.7,36.7,30.8,26.2,95,89,85,30.50,30.25,4,1,4,0.00
2018-12-29,37.4,33.6,29.8,35.2,29.3,26.4,92,86,84,30.57,30.48,4,1,6,0.00
2018-12-30,40.5,39.0,37.4,39.2,37.2,35.2,96,94,92,30.59,30.51,5,1,5,0.01
2018-12-31,45.1,42.2,39.2,43.5,40.5,37.9,95,95,94,30.54,30.50,2,0,2,0.04
2019-1-1,42.8,42.2,41.5,41.4,40.8,39.7,95,94,92,30.50,30.43,3,0,3,0.01
2019-1-2,43.0,37.8,32.5,41.2,33.4,27.9,94,82,64,30.62,30.48,6,1,6,0.00